Accueil
METAR-TAF:

METAR-TAF

Aéroports :

Cleburne Municipal Airport

Cleburne, Texas, États-Unis

latitude: 32-21-13N, longitude: 097-26-01W, altitude: 260 m

Observation

Le bulletin a été fait il y a 8 minutes, à 19:15 UTC
Vent 10 kt de sud avec des rafales jusqu'à 16 kt, variant entre sud-est et sud
Température 36°C
Humidité 37%
Pression 1016 hPa
Visibilité: 16.1 km
Quelques nuages à une hauteur de 6000 ft

METAR: KCPT 151915Z AUTO 17010G16KT 130V190 10SM FEW060 36/19 A3001 RMK AO2

Heure: 14:23 (19:23 UTC)


TAF: absent

Observations et prévisions météorologiques de plus de 4000 aéroports (messages METAR et TAF).

Les stations disponibles sont représentées par des disques jaunes et rouges sur la carte.

Passer la souris dessus pour voir le nom de la station.

Cliquer dessus pour voir les observations et prévisions météorologiques.

Pour changer de carte: cliquez sur les boutons verts avec une croix noire pour zoomer, sur le bouton vert avec un tiret pour effectuer un zoom arrière, ou sur les flèches vertes pour les cartes adjacentes.


METAR-TAF: